Voltar ao catálogo

COSMOS 2142

AtivoMilitarPO
NORAD 21230·PAYLOAD·🇷🇺 Russia

Lançado Apr 16, 1991 de Plesetsk Cosmodrome

Loading…

Próximas Passagens (próximas 24 horas)

TLE

AtualizadoSource: Space-Track

Época: Sep 14, 2026, 05:19 UTC

1 21230U 91029A   26257.22154975  .00000064  00000-0  52201-4 0  9990
2 21230  82.9596 173.2016 0037199 322.4546 189.9397 13.73383363774570

Acompanhe COSMOS 2142 em tempo real com AllMySat

Download on the App Store